Flag for Saudi Arabia Weather past 2 weeks in Medina, Saudi Arabia

Now
113 °F

Sunny.


Feels Like: 103 °F
Forecast: 84 / 115 °F
Wind: No wind

Location: Madinah

Current Time: Aug 2, 2015 at 6:04:31 PM

Latest Report: Aug 2, 2015 at 5:00 PM


Visibility: 10 mi

Pressure: 29.77 "Hg (27.89 "Hg at 606m altitude)

Humidity: 2%

Dew point: 10 °F

Location of MedinaLocation

Historic Weather in Medina — Graph

°F

Medina temperature yesterday

Maximum temperature yesterday: 111 °F (at 2:00 PM)
Minimum temperature yesterday: 95 °F (at 6:00 AM)
Average temperature yesterday: 104 °F

Past Weeks' High & Low Weather Summary

 TemperatureHumidityPressure
High115 °F (Aug 2, 3:00 PM)27% (Jul 26, 5:00 AM)29.89 "Hg (Jul 26, 5:00 AM)
Low82 °F (Jul 19, 6:00 AM)1% (Jul 18, 5:00 PM)29.65 "Hg (Jul 19, 6:00 PM)
Average99 °F8%29.78 "Hg
* Reported Jul 18 5:00 PM — Aug 2 5:00 PM, Medina, Weather by CustomWeather, © 2015

Note: Actual official high and low records may vary slightly from our data, if they occured in-between our weather recording intervals... More about our weather records

Advertising

Medina weather history for previous 24 hours

 ConditionsComfort  
Time TempWeatherWind HumidityBarometerVisibility
5:00 PM
Sun, Aug 2
113 °FSunny.No wind2%29.77 "Hg10 mi
4:00 PM113 °FPassing clouds.No wind2%29.77 "HgN/A
3:00 PM115 °FScattered clouds.No wind2%29.80 "Hg6 mi
2:00 PM113 °FScattered clouds.9 mph3%29.83 "Hg4 mi
1:00 PM111 °FPassing clouds.8 mph4%29.83 "Hg4 mi
12:00 PM109 °FSunny.6 mph4%29.86 "Hg5 mi
11:00 AM106 °FSunny.7 mph4%29.86 "Hg6 mi
10:00 AM104 °FSunny.3 mph4%29.86 "Hg5 mi
9:00 AM100 °FSunny.3 mph8%29.86 "Hg4 mi
8:00 AM95 °FSunny.8 mph11%29.83 "Hg4 mi
7:00 AM93 °FClear.9 mph12%29.83 "Hg4 mi
6:00 AM91 °FClear.7 mph12%29.83 "Hg5 mi
5:00 AM93 °FClear.6 mph9%29.80 "Hg10 mi
4:00 AM95 °FPassing clouds.9 mph9%29.80 "HgN/A
3:00 AM97 °FPassing clouds.7 mph9%29.80 "HgN/A
2:00 AM97 °FPassing clouds.8 mph9%29.80 "HgN/A
1:00 AM99 °FClear.7 mph8%29.80 "Hg10 mi
12:00 AM102 °FClear.9 mph8%29.80 "Hg10 mi
10:00 PM
Sat, Aug 1
104 °FPassing clouds.12 mph7%29.80 "Hg6 mi
9:00 PM106 °FClear.17 mph7%29.77 "Hg6 mi
8:00 PM106 °FClear.17 mph7%29.74 "Hg5 mi
7:00 PM108 °FScattered clouds.18 mph6%29.71 "Hg4 mi
6:00 PM109 °FPartly sunny.23 mph4%29.71 "Hg3 mi
Weather by CustomWeather, © 2015

See weather overviewHow to use our weather pages